TimeCST,TemperatureF,Dew PointF,Humidity,Sea Level PressureIn,VisibilityMPH,Wind Direction,Wind SpeedMPH,Gust SpeedMPH,PrecipitationIn,Events,Conditions,WindDirDegrees,DateUTC
12:15 AM,37.4,21.2,52,30.34,10.0,Calm,Calm,-,N/A,,Clear,0,2013-01-19 06:15:00
12:55 AM,39.2,21.2,49,30.33,10.0,South,5.8,-,N/A,,Clear,180,2013-01-19 06:55:00
1:15 AM,37.4,21.2,52,30.34,10.0,South,4.6,-,N/A,,Clear,190,2013-01-19 07:15:00
1:55 AM,37.4,21.2,52,30.33,10.0,South,5.8,-,N/A,,Clear,180,2013-01-19 07:55:00
2:15 AM,37.4,21.2,52,30.33,10.0,South,6.9,-,N/A,,Clear,180,2013-01-19 08:15:00
2:55 AM,37.4,23.0,56,30.33,10.0,South,3.5,-,N/A,,Clear,190,2013-01-19 08:55:00
3:15 AM,37.4,23.0,56,30.32,10.0,SSW,3.5,-,N/A,,Clear,210,2013-01-19 09:15:00
3:35 AM,37.4,23.0,56,30.32,10.0,South,4.6,-,N/A,,Clear,180,2013-01-19 09:35:00
4:15 AM,37.4,23.0,56,30.32,10.0,SSW,4.6,-,N/A,,Clear,210,2013-01-19 10:15:00
4:35 AM,37.4,23.0,56,30.31,10.0,South,6.9,-,N/A,,Clear,190,2013-01-19 10:35:00
4:55 AM,37.4,23.0,56,30.31,10.0,South,6.9,-,N/A,,Clear,180,2013-01-19 10:55:00
5:15 AM,37.4,24.8,60,30.30,10.0,South,8.1,-,N/A,,Clear,180,2013-01-19 11:15:00
5:55 AM,37.4,23.0,56,30.30,10.0,South,8.1,-,N/A,,Clear,180,2013-01-19 11:55:00
6:15 AM,37.4,23.0,56,30.30,10.0,South,5.8,-,N/A,,Clear,190,2013-01-19 12:15:00
6:35 AM,37.4,23.0,56,30.30,10.0,South,4.6,-,N/A,,Clear,180,2013-01-19 12:35:00
7:15 AM,35.6,21.2,56,30.30,10.0,South,4.6,-,N/A,,Clear,180,2013-01-19 13:15:00
8:15 AM,39.2,24.8,56,30.30,10.0,South,6.9,-,N/A,,Clear,180,2013-01-19 14:15:00
8:35 AM,41.0,24.8,53,30.31,10.0,South,5.8,-,N/A,,Clear,190,2013-01-19 14:35:00
8:56 AM,42.8,26.6,53,30.31,10.0,South,5.8,-,N/A,,Clear,180,2013-01-19 14:56:00
9:15 AM,44.6,26.6,49,30.31,10.0,South,6.9,-,N/A,,Clear,180,2013-01-19 15:15:00
9:35 AM,46.4,28.4,50,30.31,10.0,SSW,8.1,-,N/A,,Clear,200,2013-01-19 15:35:00
10:15 AM,50.0,28.4,43,30.31,10.0,SSW,11.5,18.4,N/A,,Clear,200,2013-01-19 16:15:00
10:35 AM,51.8,28.4,41,30.30,10.0,SSW,11.5,18.4,N/A,,Clear,200,2013-01-19 16:35:00
10:55 AM,53.6,28.4,38,30.29,10.0,SW,8.1,-,N/A,,Clear,230,2013-01-19 16:55:00
11:15 AM,53.6,28.4,38,30.27,10.0,SW,16.1,23.0,N/A,,Clear,230,2013-01-19 17:15:00
11:35 AM,53.6,28.4,38,30.26,10.0,SW,15.0,23.0,N/A,,Clear,230,2013-01-19 17:35:00
11:55 AM,55.4,30.2,38,30.24,10.0,SW,8.1,19.6,N/A,,Clear,220,2013-01-19 17:55:00
12:35 PM,57.2,30.2,36,30.22,10.0,SW,18.4,24.2,N/A,,Clear,220,2013-01-19 18:35:00
12:55 PM,57.2,30.2,36,30.21,10.0,SW,15.0,25.3,N/A,,Clear,230,2013-01-19 18:55:00
1:35 PM,57.2,30.2,36,30.19,10.0,SW,17.3,24.2,N/A,,Clear,220,2013-01-19 19:35:00
1:55 PM,57.2,30.2,36,30.18,10.0,SW,13.8,20.7,N/A,,Clear,230,2013-01-19 19:55:00
2:15 PM,57.2,32.0,38,30.18,10.0,SSW,11.5,23.0,N/A,,Clear,210,2013-01-19 20:15:00
3:15 PM,57.2,30.2,36,30.15,10.0,SSW,9.2,19.6,N/A,,Clear,200,2013-01-19 21:15:00
3:55 PM,57.2,30.2,36,30.16,10.0,SSW,13.8,19.6,N/A,,Clear,210,2013-01-19 21:55:00
4:15 PM,55.4,30.2,38,30.16,10.0,SSW,11.5,16.1,N/A,,Clear,210,2013-01-19 22:15:00
4:35 PM,55.4,30.2,38,30.16,10.0,SSW,10.4,-,N/A,,Clear,210,2013-01-19 22:35:00
4:55 PM,53.6,30.2,41,30.15,10.0,South,11.5,19.6,N/A,,Clear,190,2013-01-19 22:55:00
5:15 PM,53.6,30.2,41,30.14,10.0,SSW,9.2,-,N/A,,Clear,200,2013-01-19 23:15:00
5:35 PM,51.8,28.4,41,30.15,10.0,SSW,6.9,-,N/A,,Clear,200,2013-01-19 23:35:00
5:56 PM,51.8,28.4,41,30.14,10.0,SSW,8.1,-,N/A,,Clear,200,2013-01-19 23:56:00
6:15 PM,51.8,28.4,41,30.15,10.0,SSW,6.9,-,N/A,,Clear,200,2013-01-20 00:15:00
6:35 PM,50.0,28.4,43,30.16,10.0,SW,8.1,-,N/A,,Clear,220,2013-01-20 00:35:00
7:15 PM,48.2,28.4,46,30.16,10.0,SSW,8.1,-,N/A,,Clear,210,2013-01-20 01:15:00
7:35 PM,48.2,28.4,46,30.16,10.0,SW,6.9,-,N/A,,Clear,220,2013-01-20 01:35:00
7:55 PM,48.2,28.4,46,30.17,10.0,SW,9.2,-,N/A,,Clear,220,2013-01-20 01:55:00
8:15 PM,48.2,28.4,46,30.17,10.0,SSW,9.2,-,N/A,,Clear,210,2013-01-20 02:15:00
8:35 PM,48.2,28.4,46,30.18,10.0,SSW,8.1,-,N/A,,Clear,210,2013-01-20 02:35:00
8:55 PM,48.2,28.4,46,30.18,10.0,SW,6.9,-,N/A,,Clear,220,2013-01-20 02:55:00
9:35 PM,46.4,28.4,50,30.19,10.0,SW,5.8,-,N/A,,Clear,220,2013-01-20 03:35:00
9:55 PM,48.2,28.4,46,30.19,10.0,SW,6.9,-,N/A,,Clear,220,2013-01-20 03:55:00
10:35 PM,46.4,28.4,50,30.19,10.0,SSW,4.6,-,N/A,,Clear,210,2013-01-20 04:35:00
10:55 PM,46.4,28.4,50,30.19,10.0,SW,5.8,-,N/A,,Clear,220,2013-01-20 04:55:00
11:15 PM,44.6,28.4,53,30.19,10.0,SW,5.8,-,N/A,,Clear,220,2013-01-20 05:15:00
11:55 PM,44.6,28.4,53,30.18,10.0,SW,4.6,-,N/A,,Clear,220,2013-01-20 05:55:00